Regional Weather Roundup
Issued by NWS

Home | Current Version | Previous Version | Text Only | Print | Product List | Glossary On
Versions: 1 2 3 4 5 6 7 8 9 10 11 12 13 14 15 16 17 18 19 20 21 22 23 24 25 26 27 28 29 30 31 32 33 34 35 36 37 38 39 40 41 42 43 44 45 46 47 48 49 50
000
ASUS43 KDTX 120910
RWRMI
MICHIGAN HOURLY REGIONAL WEATHER ROUNDUP
NATIONAL WEATHER SERVICE DETROIT/PONTIAC MI
ISSUED BY NATIONAL WEATHER SERVICE GRAND RAPIDS MI
400 AM EST TUE DEC 12 2017

NOTE: "FAIR" INDICATES FEW OR NO CLOUDS BELOW 12,000 FEET WITH NO
SIGNIFICANT WEATHER AND/OR OBSTRUCTION TO VISIBILITY.

MIZ047>049-052>055-059>063-066>070-074>076-081>083-121000-
SOUTHEAST LOWER MICHIGAN

CITY           SKY/WX    TMP DP  RH WIND       PRES   REMARKS
ADRIAN         FLURRIES  29  23  78 N13G21    29.73R WCI  19
ALMA           CLOUDY    22  13  68 NW17G29   29.79R WCI   8
ANN ARBOR      FLURRIES  27  22  81 NW15G25   29.70R WCI  15
BAD AXE        CLOUDY    23  14  68 NW16G25   29.67R WCI  10
DETROIT CITY   CLOUDY    29  23  78 NW13G20   29.67R WCI  19
DETROIT        LGT SNOW  30  23  75 NW22G29   29.69R WCI  17
FLINT          FLURRIES  25  18  74 NW16G28   29.72R WCI  12
GROSSE ILE     FLURRIES  30  25  80 NW14      29.68R WCI  19
HILLSDALE      FLURRIES  27  21  80 NW13      29.72R WCI  16
HOWELL         LGT SNOW  25  21  86 NW17G26   29.71R WCI  12

CITY           SKY/WX    TMP DP  RH WIND       PRES   REMARKS
JACKSON        FLURRIES  25  17  72 NW12G20   29.74R WCI  14
LANSING        CLOUDY    24  16  71 NW17G28   29.77R WCI  11
MASON          CLOUDY    26  17  68 NW16G23   29.75R WCI  13
MONROE         CLOUDY    30  21  70 NW16G25   29.69R WCI  18
MT. CLEMENS    MIX PCPN  28  27  93 NW13G21   29.65R WCI  18
PONTIAC        LGT SNOW  26  22  84 NW18G29   29.66R FOG     WCI  13
PORT HOPE        N/A     26  17  68 NW23G33   29.64R WCI  11
PORT HURON     FLURRIES  28  23  80 NW15G23   29.65R WCI  17
TRI CITIES     LGT SNOW  22  19  89 NW20G35   29.75R FOG     WCI   7
YPSILANTI      FLURRIES  30  24  78 NW20      29.70R WCI  17
$$
MIZ043>046-050>051-056>058-064>065-071>073-077>080-121000-
SOUTHWEST LOWER MICHIGAN

CITY           SKY/WX    TMP DP  RH WIND       PRES   REMARKS
BATTLE CREEK   CLOUDY    24  14  65 N15G25    29.79R WCI  11
BENTON HARBOR  CLOUDY    28  13  53 NW13G32   29.89R WCI  17
BIG RAPIDS     MOCLDY    18  11  74 NW14      29.81R WCI   5
COLDWATER      CLOUDY    27  18  68 NW13G25   29.78R WCI  16
HOLLAND        CLOUDY    24  15  68 N14G23    29.88R WCI  12
GRAND RAPIDS   LGT SNOW  22  17  81 NW16G25   29.83R WCI   8
KALAMAZOO      CLOUDY    24  13  62 NW23G31   29.82R WCI   9
MARSHALL       CLOUDY    25  14  63 NW13G22   29.77R WCI  14
MOUNT PLEASANT PTCLDY    21  11  66 NW13G21   29.78R WCI   9
MUSKEGON       MOCLDY    23  11  60 N15       29.89S WCI  10
STURGIS        CLOUDY    27  19  73 N16G23    29.79R HAZE    WCI  14
$$
MIZ016>042-121000-
NORTHERN LOWER MICHIGAN

CITY           SKY/WX    TMP DP  RH WIND       PRES   REMARKS
ALPENA         LGT SNOW  17  11  77 NW18G26   29.69R WCI   1
BEAVER ISLAND  CLOUDY    15   7  71 N15G28    29.86S WCI   0
BELLAIRE       CLOUDY    18   8  67 NW9G18    29.84S WCI   6
CADILLAC       LGT SNOW  16  11  81 NW17G25   29.76S WCI   0
CHARLEVOIX     LGT SNOW  18  11  77 NW20G33   29.87R WCI   1
GAYLORD        MIX PCPN  13   4  67 MISG      29.73R
HOUGHTON LAKE  PTCLDY    16   6  65 NW21G33   29.75R WCI  -1
MANISTEE       LGT SNOW  20  12  71 NW22G29   29.88R WCI   3
OSCODA         PTCLDY    19   8  62 NW24G35   29.67R WCI   2
PELLSTON       CLOUDY    14   6  70 NW24G37   29.81R BLWGSNOWWCI  -5
TRAVERSE CITY  LGT SNOW  19  14  81 N17G30    29.84R VSB 1   WCI   4
LUDINGTON      LGT SNOW  20  11  68 N23G33    29.89R WCI   3
$$
MIZ007>008-015-121000-
EASTERN UPPER MICHIGAN

CITY           SKY/WX    TMP DP  RH WIND       PRES   REMARKS
KINROSS        LGT SNOW   7   0  73 N17G29    29.78R WCI -12
MACKINAC ISLAN LGT SNOW  14   6  71 NW20G35   29.79R WCI  -3
NEWBERRY       LGT SNOW   9   8  95 N12G24    29.84R VSB 1   WCI  -5
S. S. MARIE    PTCLDY     6  -2  69 NW15G22   29.80R WCI -12
$$
MIZ004>006-011>014-085-121000-
CENTRAL UPPER MICHIGAN

CITY           SKY/WX    TMP DP  RH WIND       PRES   REMARKS
MANISTIQUE     LGT SNOW  12   7  80 N14G22    29.88S WCI  -3
ESCANABA       FLURRIES  12   2  64 NW15G22   29.96S WCI  -4
SAWYER-GWINN   LGT SNOW   9   5  84 NW17G24   29.93R WCI  -9
$$
MIZ001>003-009>011-084-121000-
WESTERN UPPER MICHIGAN

CITY           SKY/WX    TMP DP  RH WIND       PRES   REMARKS
IRON MOUNTAIN  CLOUDY    11   1  64 NW14G26   29.97R WCI  -5
HOUGHTON       HAZE      10   3  73 N13G24    30.01F VSB 1   WCI  -5
COPPER HARBOR    N/A     14   8  77 N28G36    30.03R WCI  -6
IRONWOOD       FLURRIES  11   4  73 N10G18    30.07R WCI  -3
$$

ABBREVIATIONS USED IN REMARKS
   TC - TEMPERATURE IN CELSIUS
  WCI - WIND CHILL INDEX
   HX - HEAT INDEX
  VSB - VISIBILITY




USA.gov is the U.S. government's official web portal to all federal, state and local government web resources and services.